Satellite-Ground Cal/Val Region Overpasses Predictions

Prediction of Satellite NPP Overpassing Cal/Val Region: PacNW

Region Location: (Latitude: 10.00, Longitude: 139.50) to (Latitude: 22.70, Longitude: 165.60).

Table of predicted overpasses for the next 14.0 days since TLE Epoch: 10/8/2023
Interval Starting Time Starting Location Ending Time Ending Location
1 10/08/2023 03:30:37 ( 10.00, 147.26) 10/08/2023 03:34:13 ( 22.68, 144.24)
2 10/08/2023 16:02:30 ( 22.67, 144.48) 10/08/2023 16:06:05 ( 10.05, 141.48)
3 10/09/2023 03:11:34 ( 10.01, 152.02) 10/09/2023 03:15:10 ( 22.69, 149.01)
4 10/09/2023 15:43:26 ( 22.67, 149.24) 10/09/2023 15:47:01 ( 10.04, 146.24)
5 10/10/2023 02:52:30 ( 10.02, 156.78) 10/10/2023 02:56:06 ( 22.70, 153.77)
6 10/10/2023 15:24:23 ( 22.66, 154.00) 10/10/2023 15:27:58 ( 10.04, 151.00)
7 10/11/2023 02:33:27 ( 10.03, 161.54) 10/11/2023 02:37:02 ( 22.65, 158.54)
8 10/11/2023 15:05:20 ( 22.65, 158.76) 10/11/2023 15:08:55 ( 10.03, 155.76)
9 10/12/2023 02:15:15 ( 13.09, 165.60) 10/12/2023 02:17:58 ( 22.66, 163.30)
10 10/12/2023 03:55:53 ( 10.05, 140.92) 10/12/2023 03:57:37 ( 16.16, 139.51)
11 10/12/2023 14:46:15 ( 22.69, 163.53) 10/12/2023 14:49:51 ( 10.01, 160.52)
12 10/13/2023 03:36:49 ( 10.01, 145.70) 10/13/2023 03:40:25 ( 22.69, 142.69)
13 10/13/2023 14:30:25 ( 11.35, 165.59) 10/13/2023 14:30:47 ( 10.06, 165.30)
14 10/13/2023 16:08:42 ( 22.67, 142.92) 10/13/2023 16:12:17 ( 10.04, 139.92)
15 10/14/2023 03:17:45 ( 10.02, 150.46) 10/14/2023 03:21:20 ( 22.65, 147.46)
16 10/14/2023 15:49:38 ( 22.65, 147.68) 10/14/2023 15:53:13 ( 10.03, 144.68)
17 10/15/2023 02:58:42 ( 10.04, 155.22) 10/15/2023 03:02:17 ( 22.66, 152.22)
18 10/15/2023 15:30:34 ( 22.69, 152.45) 10/15/2023 15:34:10 ( 10.01, 149.44)
19 10/16/2023 02:39:37 ( 10.00, 159.99) 10/16/2023 02:43:13 ( 22.68, 156.98)
20 10/16/2023 15:11:30 ( 22.67, 157.21) 10/16/2023 15:15:05 ( 10.05, 154.21)
21 10/17/2023 02:20:34 ( 10.03, 164.75) 10/17/2023 02:24:09 ( 22.65, 161.75)
22 10/17/2023 14:52:27 ( 22.64, 161.97) 10/17/2023 14:56:02 ( 10.02, 158.97)
23 10/18/2023 03:42:59 ( 10.01, 144.14) 10/18/2023 03:46:35 ( 22.69, 141.13)
24 10/18/2023 14:34:42 ( 17.98, 165.59) 10/18/2023 14:36:57 ( 10.06, 163.74)
25 10/18/2023 16:14:52 ( 22.66, 141.36) 10/18/2023 16:17:03 ( 14.98, 139.50)
26 10/19/2023 03:23:56 ( 10.03, 148.90) 10/19/2023 03:27:31 ( 22.66, 145.90)
27 10/19/2023 15:55:48 ( 22.69, 146.13) 10/19/2023 15:59:24 ( 10.01, 143.12)
28 10/20/2023 03:04:52 ( 10.00, 153.67) 10/20/2023 03:08:28 ( 22.69, 150.66)
29 10/20/2023 15:36:44 ( 22.66, 150.89) 10/20/2023 15:40:19 ( 10.04, 147.89)
30 10/21/2023 02:45:48 ( 10.04, 158.43) 10/21/2023 02:49:23 ( 22.66, 155.43)
